Other Public Products
Issued by NWS Charleston, SC

Home | Current Version | Previous Version | Text Only | Print | Product List | Glossary On
Versions: 1 2 3 4 5 6 7 8 9 10 11 12 13 14 15 16 17 18 19 20 21 22 23 24 25 26 27 28 29 30 31 32 33 34 35 36 37 38 39 40 41 42 43 44 45 46 47 48 49 50
000
FPUS82 KCHS 261212
OPUCHS

TEST...KCHS/KSAV Gateway Observations...TEST
National Weather Service Charleston SC
800 AM EDT FRI MAY 26 2017

NOTE: "fair" indicates few or no clouds below 12,000 feet with no
significant weather and/or obstructions to visibility.

SCZ050-WAZ558-NCZ071-TXZ119-213-PAZ071-DCZ001-FLZ074-172-MI076-
NYZ176-178-MAZ016-IL014-TNZ027-NJZ106-GAZ044-MD014-261300-

...Gateway Observations for Charleston International...

CITY           SKY/WX    TMP DP  RH WIND       PRES   REMARKS
Chas Airport   SUNNY     65  53  65 W10       30.01R
6HR MIN TEMP:  60; 6HR MAX TEMP:  65;

Seattle        CLEAR     52  47  83 CALM      29.93S
6HR MIN TEMP:  52; 6HR MAX TEMP:  60;

Charlotte      MOSUNNY   62  53  72 SW3       29.97R
6HR MIN TEMP:  56; 6HR MAX TEMP:  62;

Dallas DFW     CLOUDY    77  71  82 S18       29.71R
6HR MIN TEMP:  75; 6HR MAX TEMP:  78;

Dallas Love    MOCLDY    77  70  79 S10G22    29.74R
6HR MIN TEMP:  75; 6HR MAX TEMP:  78;

Philladelphia  MOSUNNY   62  58  86 SW12      29.63R
6HR MIN TEMP:  58; 6HR MAX TEMP:  62; 6HR PCP:  0.02;

Wash National  MOSUNNY   64  58  80 SW10      29.71R
6HR MIN TEMP:  58; 6HR MAX TEMP:  64;

Baltimore      CLOUDY    60  58  92 W10       29.68R
6HR MIN TEMP:  58; 6HR MAX TEMP:  61; 6HR PCP: TRACE;

Miami          PTSUNNY   81  75  82 NW5       30.04R
6HR MIN TEMP:  79; 6HR MAX TEMP:  82; 6HR PCP: TRACE;

Detroit        CLOUDY    57  52  83 NW9       29.81R
6HR MIN TEMP:  56; 6HR MAX TEMP:  58;

Newark         CLOUDY    56  56 100 NW7       29.58R
6HR MIN TEMP:  55; 6HR MAX TEMP:  56; 6HR PCP:  0.11;

Laguardia      CLOUDY    58  55  90 W7        29.57R
6HR MIN TEMP:  57; 6HR MAX TEMP:  58; 6HR PCP:  0.12;

J F K          PTSUNNY   59  58  96 NW5       29.58R
6HR MIN TEMP:  57; 6HR MAX TEMP:  59; 6HR PCP:  0.15;

Boston Logan   LGT RAIN  49  48  97 N13       29.48F FOG
6HR MIN TEMP:  49; 6HR MAX TEMP:  51; 6HR PCP:  0.33;

Ft. Lauderdale PTSUNNY   79  75  87 NW6       30.03R
6HR MIN TEMP:  77; 6HR MAX TEMP:  79;

Chicago O`Hare PTSUNNY   58  52  80 CALM      29.84S
6HR MIN TEMP:  52; 6HR MAX TEMP:  58; 6HR PCP: TRACE;

Chicago Midway CLOUDY    58  53  84 SE3       29.85S
6HR MIN TEMP:  52; 6HR MAX TEMP:  58;

Houston Bush   CLOUDY    76  71  85 S9        29.87R
6HR MIN TEMP:  74; 6HR MAX TEMP:  76;

Houston Hobby  CLOUDY    76  72  87 S6        29.86R
6HR MIN TEMP:  73; 6HR MAX TEMP:  76;

Nashville      MOSUNNY   59  54  83 S6        29.96R
6HR MIN TEMP:  54; 6HR MAX TEMP:  59;

Atlanta        MOSUNNY   63  54  72 W6        30.03R
6HR MIN TEMP:  56; 6HR MAX TEMP:  63;


$$

GAZ044-118-TXZ119-213-NCZ071-DCZ001-MDZ014-506-PAZ021-071-NJZ106-
NYZ176-178-MAZ106-OHZ011-021-055-MIZ076-KYZ091-ILZ014-INZ047-
MNZ060-ONZ431-261300-

...Gateway Observations for Savannah International...

CITY           SKY/WX    TMP DP  RH WIND       PRES   REMARKS
Savannah Arpt  MOSUNNY   63  55  75 W6        30.04R
6HR MIN TEMP:  58; 6HR MAX TEMP:  63;

Atlanta        MOSUNNY   63  54  72 W6        30.03R
6HR MIN TEMP:  56; 6HR MAX TEMP:  63;

Charlotte      MOSUNNY   62  53  72 SW3       29.97R
6HR MIN TEMP:  56; 6HR MAX TEMP:  62;

Dallas DFW     CLOUDY    77  71  82 S18       29.71R
6HR MIN TEMP:  75; 6HR MAX TEMP:  78;

Houston Bush   CLOUDY    76  71  85 S9        29.87R
6HR MIN TEMP:  74; 6HR MAX TEMP:  76;

Wash National  MOSUNNY   64  58  80 SW10      29.71R
6HR MIN TEMP:  58; 6HR MAX TEMP:  64;

Wash Dulles    MOSUNNY   61  57  87 S5        29.72R
6HR MIN TEMP:  53; 6HR MAX TEMP:  61;

Baltimore      CLOUDY    60  58  92 W10       29.68R
6HR MIN TEMP:  58; 6HR MAX TEMP:  61; 6HR PCP: TRACE;

Philadelphia   MOSUNNY   62  58  86 SW12      29.63R
6HR MIN TEMP:  58; 6HR MAX TEMP:  62; 6HR PCP:  0.02;

Newark         CLOUDY    56  56 100 NW7       29.58R
6HR MIN TEMP:  55; 6HR MAX TEMP:  56; 6HR PCP:  0.11;

Laguardia      CLOUDY    58  55  90 W7        29.57R
6HR MIN TEMP:  57; 6HR MAX TEMP:  58; 6HR PCP:  0.12;

J F K          PTSUNNY   59  58  96 NW5       29.58R
6HR MIN TEMP:  57; 6HR MAX TEMP:  59; 6HR PCP:  0.15;

Boston         LGT RAIN  49  48  97 N13       29.48F FOG
6HR MIN TEMP:  49; 6HR MAX TEMP:  51; 6HR PCP:  0.33;

Pittsburg      LGT RAIN  58  57  97 W12       29.74R FOG
6HR MIN TEMP:  57; 6HR MAX TEMP:  58; 6HR PCP:  0.03;

Akron          LGT RAIN  57  54  89 NW8       29.77R FOG
6HR MIN TEMP:  57; 6HR MAX TEMP:  59; 6HR PCP:  0.13;

Cleveland      CLOUDY    60  54  80 NW12      29.79R
6HR MIN TEMP:  59; 6HR MAX TEMP:  60;

Cincinnati     MOSUNNY   56  55  97 SW3       29.91R
6HR MIN TEMP:  48; 6HR MAX TEMP:  56;

Columbus       SUNNY     58  55  90 W10       29.86R
Detroit        CLOUDY    57  52  83 NW9       29.81R
6HR MIN TEMP:  56; 6HR MAX TEMP:  58;

Chicago O`Hare PTSUNNY   58  52  80 CALM      29.84S
6HR MIN TEMP:  52; 6HR MAX TEMP:  58; 6HR PCP: TRACE;

Minneapolis    CLOUDY    62  51  67 SE9       29.71R
6HR MIN TEMP:  61; 6HR MAX TEMP:  62;

Indianapolis   CLOUDY    57  54  89 CALM      29.90R FOG
6HR MIN TEMP:  51; 6HR MAX TEMP:  57;

Toronto Canada PTSUNNY   57  54  88 N9        29.65R

$$




USA.gov is the U.S. government's official web portal to all federal, state and local government web resources and services.